User: anonymous   Login
Location: Unspecified
(0.0000°N, 0.0000°E)
Time: 07:27:57
(UTC+02:00)
Language:

PSLV R/B - Orbit

View from above orbital plane
View from above orbital plane
View from above satellite
View from above satellite

Ground track
Ground track

The orbit data is extracted from the following two-line orbital elements,

1 29713U 07001E   16151.96023705 +.00000382 +00000-0 +51085-4 0  9992
2 29713 097.7160 129.3854 0023767 270.8814 088.9678 14.84786411507238
Epoch (UTC): 30 May 2016 23:02:44
Eccentricity: 0.0023767
inclination: 97.7160°
perigee height: 597 km
apogee height: 631 km
right ascension of ascending node: 129.3854°
argument of perigee: 270.8814°
revolutions per day: 14.84786411
mean anomaly at epoch: 88.9678°
orbit number at epoch: 50723

The dashed part of the orbit path shows where the satellite is in the earth's shadow,  

DLR